This demonstration page uses our WeatherBlox Daily Observations layout. Learn more.

Left ArrowRight Arrow

44.8408, -93.29828

Hourly Observations for October 28, 2021

Temp ( °F °C ) Dew Point ( °F °C ) Humidity (%) Winds ( mph kmh ) Pressure ( in mb ) Visibility ( mi km ) Precip ( " mm )
12:18 am 00:18 Cloudy with Light Rain 47 8.3 44 6.7 90 90 SE 6 9 29.79 1009 6 10 0.08 2.03
12:53 am 00:53 Cloudy with Light Rain 47 8.3 44 6.7 90 90 SE 8 13 29.77 1008 8 13 0.14 3.56
1:53 am 01:53 Cloudy with Light Rain 47 8.3 44 6.7 90 90 ESE 6 9 29.77 1008 6 10 0.05 1.27
2:53 am 02:53 Cloudy with Light Rain 47 8.3 45 7.2 93 93 E 6 9 29.77 1008 5 8 0.10 2.54
3:48 am 03:48 Cloudy with Light Rain 46 8 45 7 93 93 ESE 8 13 29.78 1008 5 8 0.11 2.79
3:53 am 03:53 Cloudy with Light Rain 47 8.3 44 6.7 90 90 ESE 7 11 29.77 1008 6 10 0.12 3.05
4:49 am 04:49 Cloudy with Light Rain 46 8 45 7 93 93 ESE 9 15 29.78 1008 6 10 0.05 1.27
4:53 am 04:53 Cloudy with Light Rain 46 7.8 44 6.7 93 93 ESE 9 15 29.77 1008 6 10 0.05 1.27
5:09 am 05:09 Cloudy with Light Rain 46 7.8 44 6.7 93 93 ESE 8 13 29.77 1008 7 11 0.01 0.25
5:53 am 05:53 Cloudy with Light Rain 46 7.8 44 6.7 93 93 ESE 8 13 29.76 1008 6 10 0.03 0.76
6:08 am 06:08 Cloudy with Light Rain 46 7.8 44 6.7 93 93 ESE 8 13 29.77 1008 6 10 0.01 0.25
6:53 am 06:53 Cloudy with Light Rain 46 7.8 44 6.7 93 93 NE 3 6 29.74 1007 5 8 0.04 1.02
7:22 am 07:22 Cloudy with Light Rain 46 7.8 45 7.2 96 96 Calm 29.76 1008 5 8 0.02 0.51
7:53 am 07:53 Cloudy with Mist and Fog 46 7.8 44 6.7 93 93 E 7 11 29.75 1008 6 10 0.04 1.02
8:36 am 08:36 Cloudy with Mist and Fog 46 7.8 44 6.7 93 93 E 7 11 29.79 1009 6 10 0.00 0.00
8:53 am 08:53 Cloudy with Light Rain 46 7.8 44 6.7 93 93 E 8 13 29.78 1009 5 8 0.00 0.00
9:19 am 09:19 Cloudy with Light Rain 46 7.8 44 6.7 93 93 NE 5 7 29.78 1008 7 11 0.00 0.00
9:53 am 09:53 Cloudy 47 8.3 44 6.7 90 90 VRB 5 7 29.77 1008 7 11 0.00 0.00
10:53 am 10:53 Cloudy 47 8.3 44 6.7 90 90 ENE 6 9 29.79 1009 8 13 0.00 0.00
11:53 am 11:53 Cloudy 48 8.9 44 6.7 86 86 NNE 5 7 29.80 1009 10 16 0.00 0.00
12:53 pm 12:53 Cloudy 48 8.9 44 6.7 86 86 NNW 8 13 29.78 1009 10 16 0.00 0.00
1:53 pm 13:53 Cloudy with Light Rain 48 8.9 45 7.2 89 89 NNE 6 9 29.81 1010 5 8 0.01 0.25
2:53 pm 14:53 Cloudy 48 8.9 46 7.8 93 93 N 6 9 29.80 1009 7 11 0.03 0.76
3:02 pm 15:02 Cloudy 48 8.9 46 7.8 93 93 N 9 15 29.80 1009 7 11 0.00 0.00
3:10 pm 15:10 Cloudy 48 8.9 46 7.8 93 93 NNW 8 13 29.80 1009 7 11 0.01 0.25
3:24 pm 15:24 Cloudy 48 8.9 45 7.2 89 89 NNW 12 19 29.81 1010 9 14 0.01 0.25
3:53 pm 15:53 Cloudy 49 9.4 45 7.2 86 86 N 9 15 29.82 1010 10 16 0.01 0.25
4:19 pm 16:19 Cloudy 48 8.9 45 7.2 89 89 N 10 17 29.83 1010 10 16 0.00 0.00
4:53 pm 16:53 Cloudy with Light Rain 48 8.9 45 7.2 89 89 N 12 19 29.83 1010 9 14 0.00 0.00
5:22 pm 17:22 Cloudy with Light Rain 48 8.9 45 7.2 89 89 N 9 15 29.85 1011 8 13 0.00 0.00
5:53 pm 17:53 Cloudy with Light Rain 48 8.9 45 7.2 89 89 N 10 17 29.85 1011 6 10 0.01 0.25
6:53 pm 18:53 Cloudy with Light Rain 48 8.9 44 6.7 86 86 N 14 22 29.86 1011 10 16 0.01 0.25
7:53 pm 19:53 Cloudy with Light Rain 47 8.3 44 6.7 90 90 N 13 20 29.85 1011 10 16 0.01 0.25
8:53 pm 20:53 Cloudy with Light Rain 47 8.3 45 7.2 93 93 N 13 20 29.86 1011 10 16 0.01 0.25
9:53 pm 21:53 Cloudy with Light Rain 48 8.9 45 7.2 89 89 N 14 22 29.88 1012 9 14 0.01 0.25
10:53 pm 22:53 Cloudy 48 8.9 45 7.2 89 89 N 9 15 29.89 1012 10 16 0.01 0.25
11:53 pm 23:53 Cloudy 48 8.9 45 7.2 89 89 N 13 20 29.90 1013 10 16 0.00 0.00

Powered by AerisWeather